Temp
63 62 63 63 63 62 62 61 62 60 60 60 60 61 61 62 61 60 60 61 61 62 63 63 64 65 67 69 70 70 71 71 71 71 70 69 70 69 68 67 66 67
61 61 61 61 62 61 62 61 60 60 60 61 61 63 62 61 61 60 59 59 60 60 62 62 62 64 65 66 68 69 71 70 70 72 71 70 68 68 68 68 68 68
62 61 60 60 61 60 59 60 60 60 61 62 61 61 61 62 60 60 59 59 59 59 60 60 61 63 64 65 66 67 68 70 70 72 72 71 71 70 71 71 70 69
61 61 61 60 61 60 60 60 61 60 61 60 61 62 61 61 61 59 58 58 59 59 59 59 59 60 61 63 64 66 67 68 71 72 71 71 72 70 69 70 69 70
61 61 61 61 61 61 60 60 59 60 60 61 60 61 60 61 59 59 58 58 58 58 57 57 58 59 60 61 62 63 64 66 69 71 71 71 72 71 71 70 70 70
61 62 62 61 61 60 59 60 59 60 60 60 61 61 61 60 59 58 58 57 57 57 56 57 57 58 60 60 62 62 64 65 67 69 70 71 72 72 72 71 71 70
61 61 60 61 61 60 59 59 60 60 59 59 60 59 59 58 58 58 57 56 56 56 56 56 56 56 58 58 59 61 63 65 66 67 68 70 71 72 73 73 72 72
60 61 61 62 60 60 59 60 61 59 59 58 57 57 58 58 58 57 56 55 55 55 55 56 56 56 57 58 57 57 58 62 64 66 66 67 69 72 73 73 72 71
61 60 61 60 59 60 59 60 60 59 59 57 57 57 58 57 56 56 55 55 55 54 54 54 55 55 55 55 56 56 56 58 60 63 64 65 67 70 73 74 73 72
60 61 60 60 59 60 60 61 59 59 59 58 58 57 56 56 56 56 55 54 53 53 53 53 53 53 54 55 55 56 56 56 57 59 62 64 65 68 70 71 72 72
60 60 59 59 59 60 60 59 59 59 59 58 57 55 55 54 54 55 54 53 52 53 53 52 52 53 53 53 54 55 55 56 56 57 59 61 64 66 65 69 71 72
60 59 59 59 59 60 58 59 59 59 58 56 55 54 54 54 54 54 53 53 52 52 52 52 52 52 52 52 53 53 54 55 56 57 58 60 61 64 67 69 70 72
60 59 59 59 58 58 58 59 59 57 56 56 56 55 54 54 54 54 53 52 52 53 52 52 52 52 52 52 52 53 53 54 55 57 58 59 61 63 66 68 70 71
60 60 59 59 58 58 58 57 56 56 56 57 57 56 54 54 53 52 53 53 52 52 52 52 52 52 52 52 52 52 52 53 54 55 57 59 61 63 64 66 68 70
60 59 60 59 58 57 56 55 55 55 56 56 56 55 54 54 53 53 53 52 52 52 52 52 52 51 52 52 52 52 53 52 53 54 55 57 60 62 64 66 68 70
60 59 59 58 56 54 55 55 55 55 55 55 55 55 54 54 53 53 52 51 50 51 51 50 50 51 50 47 47 51 53 54 54 55 55 56 58 61 64 66 67 70
60 59 59 56 54 53 54 55 56 55 55 55 54 53 53 53 52 52 51 51 50 50 50 50 50 51 46 44 44 44 49 52 53 54 56 56 58 60 62 65 67 70
60 59 56 54 54 54 54 55 55 55 54 53 52 52 52 52 51 51 51 51 50 50 49 49 50 47 44 44 43 43 44 49 51 52 54 56 58 60 62 65 67 68
59 58 56 54 54 55 55 56 56 54 53 51 51 51 51 50 50 50 50 50 50 49 49 50 50 47 44 43 43 42 42 44 49 50 51 54 56 58 61 64 66 67
58 56 54 54 53 54 55 55 54 52 51 51 50 50 49 49 48 48 48 48 49 48 48 49 49 47 44 43 43 42 41 42 49 49 50 53 56 58 58 62 66 67
57 56 54 53 53 54 54 53 52 51 50 50 49 48 48 47 46 46 47 47 48 48 47 47 48 45 43 43 42 42 41 41 48 48 49 51 54 57 58 58 64 67
56 55 53 53 54 54 53 52 51 50 48 48 47 47 47 47 46 46 45 46 47 48 47 47 48 44 43 42 42 41 41 45 47 48 48 49 52 56 59 60 61 64
56 55 53 53 53 53 52 51 50 49 48 49 47 46 46 46 45 45 46 46 46 47 46 46 48 46 43 42 42 41 42 47 47 47 48 49 51 53 57 59 60 64
57 56 53 53 54 52 51 50 49 49 50 49 47 46 46 46 46 46 46 46 45 45 46 45 46 46 43 42 42 41 43 47 47 47 48 49 50 53 55 58 60 55
56 55 54 53 53 52 50 48 48 49 50 50 48 47 46 46 46 45 45 45 45 45 45 44 45 45 43 42 42 42 43 46 47 47 47 48 50 52 54 56 59 58
58 56 54 53 53 51 50 49 50 50 49 48 47 47 45 46 46 44 43 44 45 45 45 45 44 46 46 43 42 42 42 46 47 46 46 48 50 52 54 56 58 62
MSLP
1018.38 1018.46 1018.66 1018.70 1018.70 1018.66 1018.74 1018.90 1018.90 1019.02 1018.98 1018.90 1018.82 1018.70 1018.62 1018.54 1018.70 1018.78 1018.66 1018.50 1018.30 1018.14 1017.98 1017.82 1017.62 1017.26 1016.78 1016.34 1016.02 1015.78 1015.50 1015.26 1015.14 1015.06 1015.22 1015.38 1015.42 1015.54 1015.82 1016.14 1016.26 1016.34
1018.30 1018.50 1018.50 1018.58 1018.54 1018.54 1018.66 1018.78 1018.86 1018.82 1018.74 1018.70 1018.54 1018.46 1018.42 1018.42 1018.46 1018.66 1018.66 1018.54 1018.34 1018.14 1017.90 1017.74 1017.50 1017.18 1016.82 1016.46 1016.02 1015.70 1015.30 1015.06 1014.98 1014.78 1014.74 1014.90 1015.18 1015.26 1015.26 1015.46 1015.66 1015.86
1018.10 1018.26 1018.46 1018.50 1018.46 1018.54 1018.70 1018.66 1018.66 1018.58 1018.46 1018.34 1018.34 1018.30 1018.22 1018.22 1018.26 1018.34 1018.38 1018.34 1018.22 1018.10 1017.86 1017.62 1017.42 1017.14 1016.82 1016.50 1016.10 1015.66 1015.26 1014.90 1014.74 1014.46 1014.38 1014.34 1014.42 1014.38 1014.34 1014.70 1014.98 1015.34
1017.94 1018.10 1018.22 1018.30 1018.34 1018.38 1018.38 1018.38 1018.34 1018.30 1018.22 1018.14 1018.06 1018.02 1018.06 1018.02 1018.10 1018.22 1018.22 1018.18 1018.06 1017.90 1017.78 1017.70 1017.46 1017.22 1016.86 1016.42 1015.98 1015.58 1015.22 1014.78 1014.34 1014.14 1014.10 1013.98 1013.90 1014.02 1014.18 1014.30 1014.46 1014.66
1017.70 1017.86 1017.98 1018.06 1018.06 1018.14 1018.18 1018.18 1018.18 1018.14 1018.06 1018.02 1018.02 1018.02 1017.90 1017.78 1017.90 1017.98 1017.94 1017.90 1017.82 1017.78 1017.70 1017.58 1017.34 1017.02 1016.70 1016.38 1016.06 1015.58 1015.18 1014.74 1014.26 1013.94 1013.74 1013.58 1013.46 1013.50 1013.58 1013.74 1013.90 1014.06
1017.50 1017.58 1017.66 1017.78 1017.82 1017.90 1017.94 1017.94 1017.98 1017.98 1017.90 1017.86 1017.78 1017.70 1017.58 1017.62 1017.74 1017.78 1017.78 1017.74 1017.66 1017.62 1017.50 1017.34 1017.18 1016.90 1016.58 1016.22 1015.82 1015.34 1014.94 1014.50 1013.98 1013.74 1013.50 1013.26 1013.10 1013.02 1013.02 1013.06 1013.18 1013.42
1017.30 1017.42 1017.54 1017.54 1017.58 1017.62 1017.74 1017.78 1017.70 1017.62 1017.78 1017.70 1017.66 1017.62 1017.62 1017.62 1017.54 1017.54 1017.62 1017.62 1017.46 1017.34 1017.22 1017.14 1017.02 1016.82 1016.50 1016.18 1015.82 1015.26 1014.70 1014.26 1013.90 1013.62 1013.30 1012.94 1012.70 1012.62 1012.50 1012.50 1012.58 1012.78
1017.10 1017.18 1017.22 1017.22 1017.30 1017.34 1017.38 1017.30 1017.14 1017.38 1017.46 1017.54 1017.62 1017.54 1017.50 1017.42 1017.34 1017.30 1017.34 1017.38 1017.34 1017.14 1016.94 1016.82 1016.66 1016.50 1016.30 1016.02 1015.74 1015.46 1014.98 1014.38 1013.86 1013.50 1013.18 1012.86 1012.54 1012.22 1012.02 1011.90 1011.94 1012.18
1016.90 1016.98 1016.98 1017.06 1017.14 1017.10 1017.06 1016.94 1016.98 1017.10 1017.14 1017.18 1017.18 1017.14 1017.14 1017.14 1017.10 1017.10 1017.06 1017.02 1016.94 1016.86 1016.74 1016.58 1016.38 1016.22 1016.10 1015.90 1015.58 1015.34 1015.06 1014.58 1013.98 1013.46 1013.10 1012.78 1012.46 1011.98 1011.78 1011.54 1011.50 1011.50
1016.66 1016.74 1016.82 1016.86 1016.86 1016.78 1016.66 1016.54 1016.74 1016.74 1016.70 1016.70 1016.70 1016.74 1016.78 1016.74 1016.74 1016.74 1016.78 1016.78 1016.74 1016.58 1016.38 1016.18 1016.02 1015.94 1015.82 1015.62 1015.30 1015.06 1014.82 1014.54 1014.18 1013.66 1013.06 1012.62 1012.26 1011.90 1011.58 1011.30 1011.10 1011.06
1016.42 1016.50 1016.62 1016.62 1016.66 1016.42 1016.22 1016.42 1016.38 1016.34 1016.30 1016.30 1016.38 1016.46 1016.46 1016.42 1016.30 1016.26 1016.22 1016.26 1016.18 1016.10 1015.98 1015.86 1015.70 1015.46 1015.26 1015.14 1015.02 1014.78 1014.54 1014.22 1013.90 1013.54 1013.06 1012.54 1012.10 1011.66 1011.38 1011.06 1010.66 1010.58
1016.18 1016.26 1016.34 1016.34 1016.26 1016.14 1016.30 1016.22 1016.10 1016.02 1016.02 1016.06 1016.14 1016.14 1016.06 1015.98 1015.94 1015.82 1015.78 1015.70 1015.70 1015.70 1015.62 1015.46 1015.26 1015.10 1014.86 1014.70 1014.58 1014.46 1014.26 1013.98 1013.58 1013.18 1012.74 1012.34 1011.94 1011.50 1011.02 1010.62 1010.42 1010.18
1015.90 1016.02 1016.02 1016.02 1016.10 1016.18 1016.06 1015.94 1015.90 1015.86 1015.86 1015.74 1015.58 1015.42 1015.34 1015.26 1015.26 1015.30 1015.30 1015.30 1015.10 1015.02 1014.90 1014.82 1014.66 1014.50 1014.34 1014.22 1014.10 1013.94 1013.78 1013.54 1013.26 1012.86 1012.38 1011.90 1011.46 1011.14 1010.70 1010.34 1009.98 1009.74
1015.66 1015.66 1015.78 1015.78 1015.90 1015.90 1015.86 1015.86 1015.82 1015.70 1015.50 1015.26 1015.10 1014.98 1014.94 1014.86 1014.82 1014.86 1014.74 1014.70 1014.50 1014.34 1014.14 1014.10 1013.98 1013.78 1013.62 1013.54 1013.50 1013.34 1013.18 1013.02 1012.82 1012.54 1012.10 1011.50 1010.94 1010.54 1010.22 1009.90 1009.58 1009.30
1015.34 1015.42 1015.42 1015.50 1015.62 1015.66 1015.78 1015.74 1015.58 1015.42 1015.18 1014.98 1014.82 1014.66 1014.50 1014.38 1014.34 1014.30 1014.22 1014.06 1013.90 1013.74 1013.54 1013.42 1013.22 1013.02 1012.90 1012.78 1012.78 1012.70 1012.62 1012.42 1012.26 1012.06 1011.74 1011.30 1010.62 1009.98 1009.58 1009.26 1009.06 1008.74
1014.98 1015.02 1015.06 1015.22 1015.50 1015.74 1015.62 1015.38 1015.18 1014.94 1014.70 1014.46 1014.26 1014.10 1014.02 1013.90 1013.78 1013.66 1013.62 1013.54 1013.42 1013.22 1013.10 1012.90 1012.62 1012.30 1012.06 1012.22 1012.38 1012.22 1012.02 1011.78 1011.58 1011.38 1011.22 1010.86 1010.34 1009.58 1008.98 1008.62 1008.42 1008.18
1014.66 1014.62 1014.82 1015.22 1015.54 1015.58 1015.30 1015.02 1014.78 1014.54 1014.34 1014.06 1013.90 1013.78 1013.66 1013.50 1013.38 1013.18 1013.02 1012.86 1012.74 1012.58 1012.46 1012.26 1011.94 1011.58 1011.50 1011.70 1011.82 1012.02 1012.06 1011.62 1011.18 1010.78 1010.58 1010.30 1009.82 1009.14 1008.46 1008.02 1007.74 1007.58
1014.30 1014.46 1014.86 1015.22 1015.26 1015.06 1014.90 1014.70 1014.42 1014.18 1013.98 1013.82 1013.66 1013.50 1013.30 1013.10 1012.94 1012.74 1012.46 1012.26 1012.10 1011.94 1011.74 1011.50 1011.22 1010.98 1011.18 1011.14 1011.30 1011.46 1011.62 1011.50 1011.26 1010.78 1010.14 1009.62 1009.18 1008.62 1008.02 1007.50 1007.18 1006.98
1014.10 1014.38 1014.66 1014.78 1014.74 1014.70 1014.50 1014.22 1013.98 1013.94 1013.82 1013.70 1013.50 1013.26 1013.06 1012.86 1012.54 1012.30 1011.98 1011.70 1011.50 1011.26 1011.02 1010.74 1010.46 1010.30 1010.54 1010.58 1010.70 1010.86 1011.06 1011.26 1010.94 1010.58 1010.18 1009.42 1008.82 1008.22 1007.50 1006.94 1006.58 1006.42
1014.06 1014.34 1014.50 1014.58 1014.66 1014.46 1014.22 1013.98 1013.94 1013.90 1013.78 1013.54 1013.26 1013.02 1012.78 1012.46 1012.14 1011.90 1011.58 1011.30 1011.02 1010.78 1010.42 1010.10 1009.78 1009.62 1009.74 1009.86 1009.98 1010.14 1010.34 1010.62 1010.30 1010.18 1009.74 1009.18 1008.54 1007.98 1007.46 1006.62 1006.02 1005.78
1013.90 1014.06 1014.34 1014.46 1014.34 1014.10 1013.90 1013.74 1013.74 1013.66 1013.46 1013.26 1013.02 1012.78 1012.50 1012.14 1011.82 1011.50 1011.14 1010.78 1010.46 1010.18 1009.86 1009.50 1009.10 1009.02 1009.02 1009.06 1009.18 1009.38 1009.58 1009.90 1009.58 1009.46 1009.18 1008.74 1008.10 1007.46 1007.02 1006.74 1005.86 1005.30
1013.70 1013.90 1014.10 1014.14 1013.94 1013.74 1013.58 1013.38 1013.38 1013.38 1013.22 1012.98 1012.78 1012.46 1012.14 1011.78 1011.38 1011.10 1010.62 1010.22 1009.82 1009.46 1009.06 1008.58 1008.22 1008.26 1008.30 1008.30 1008.34 1008.54 1008.82 1008.94 1008.70 1008.58 1008.34 1008.02 1007.50 1006.94 1006.50 1006.18 1005.86 1005.14
1013.50 1013.58 1013.82 1013.78 1013.62 1013.46 1013.34 1013.22 1013.18 1013.10 1012.90 1012.54 1012.30 1012.02 1011.66 1011.26 1010.86 1010.50 1010.06 1009.66 1009.30 1008.90 1008.46 1007.90 1007.46 1007.34 1007.38 1007.42 1007.46 1007.62 1007.94 1007.74 1007.70 1007.66 1007.42 1007.18 1006.78 1006.38 1006.06 1005.62 1005.22 1004.58
1013.22 1013.38 1013.54 1013.46 1013.26 1013.22 1013.18 1013.14 1013.02 1012.70 1012.26 1011.98 1011.78 1011.38 1010.94 1010.54 1010.18 1009.74 1009.42 1009.10 1008.74 1008.30 1007.94 1007.46 1006.94 1006.62 1006.54 1006.42 1006.50 1006.62 1006.78 1006.74 1006.74 1006.70 1006.50 1006.30 1005.98 1005.82 1005.50 1005.02 1004.50 1004.30
1012.98 1013.02 1013.10 1013.06 1012.98 1012.94 1013.02 1012.98 1012.74 1012.30 1011.78 1011.50 1011.18 1010.82 1010.42 1010.02 1009.70 1009.38 1008.94 1008.54 1008.14 1007.66 1007.26 1006.90 1006.26 1005.78 1005.62 1005.50 1005.50 1005.58 1005.90 1005.94 1005.94 1005.82 1005.62 1005.30 1005.14 1004.94 1004.70 1004.46 1004.02 1003.66
1012.54 1012.66 1012.78 1012.86 1012.78 1012.78 1012.78 1012.70 1012.42 1011.94 1011.54 1011.22 1010.82 1010.54 1010.10 1009.66 1009.38 1009.02 1008.54 1007.86 1007.34 1006.90 1006.50 1006.10 1005.62 1004.98 1004.46 1004.22 1004.42 1004.70 1005.06 1005.14 1005.06 1004.98 1004.62 1004.46 1004.38 1004.10 1003.82 1003.62 1003.46 1002.98
Wind_Speed
3 2 2 3 3 2 3 3 3 4 5 5 5 5 5 6 7 8 9 9 10 10 10 10 11 11 11 11 12 12 11 12 11 11 12 13 15 18 16 18 15 13
4 3 3 3 3 3 3 4 4 5 5 6 6 6 6 6 8 8 9 10 10 10 11 10 11 11 11 11 12 12 12 12 13 10 11 14 14 16 18 18 18 15
4 4 4 4 4 4 5 5 5 5 5 6 6 7 7 6 8 8 9 10 10 10 10 10 11 12 12 12 12 12 12 14 14 13 12 13 12 14 14 15 17 19
5 5 4 5 5 5 5 5 5 5 6 6 6 6 6 7 8 10 10 11 11 12 11 11 12 12 12 13 13 12 13 14 15 15 14 12 12 12 14 14 15 17
5 5 5 5 5 5 5 6 7 6 7 7 7 8 8 9 9 10 11 11 11 12 11 12 12 12 12 12 12 11 12 12 14 15 15 15 12 13 13 15 15 18
4 4 4 5 5 5 5 6 7 7 8 9 10 9 10 11 10 11 12 12 11 12 12 12 12 12 12 12 13 12 12 12 13 15 17 17 16 14 13 15 17 18
4 4 5 6 6 6 7 7 8 9 9 10 10 11 11 12 12 12 12 12 13 13 13 13 13 13 11 12 12 13 13 14 14 15 17 16 17 18 16 15 16 17
4 4 5 6 6 7 8 9 10 10 10 10 11 11 12 13 13 12 11 12 13 14 14 14 15 15 15 13 13 13 14 12 14 16 16 17 17 20 20 16 15 18
4 5 5 6 7 8 9 9 10 11 10 11 11 11 11 12 13 13 13 13 13 14 14 15 15 15 14 14 14 14 14 14 14 15 16 16 17 20 20 20 18 17
4 5 6 7 8 8 10 12 11 11 11 12 13 12 12 12 14 14 15 14 15 16 16 16 16 16 15 15 16 16 15 16 15 15 16 16 17 18 19 21 21 19
5 5 6 7 8 9 13 12 13 12 12 13 12 11 12 12 12 14 14 15 15 16 17 17 16 17 17 17 16 15 16 15 16 16 16 17 17 18 18 20 21 21
5 6 6 8 10 11 12 13 13 13 13 13 12 12 12 12 13 14 15 17 16 16 17 18 18 18 18 18 17 16 16 16 16 17 17 17 17 18 19 19 19 21
5 6 7 8 10 11 11 12 13 14 14 14 14 14 14 14 14 14 15 17 18 18 18 18 19 19 19 18 17 17 17 17 17 18 18 17 17 19 20 20 20 20
5 6 7 8 9 11 12 12 13 13 14 15 15 16 15 15 16 17 17 16 17 18 18 17 18 19 19 19 18 16 16 17 17 17 18 18 19 19 19 20 20 21
5 5 7 9 10 11 11 12 13 14 15 15 15 16 15 16 17 17 18 19 19 19 20 19 18 18 17 17 17 17 17 16 17 18 18 18 19 19 20 21 20 20
5 6 8 9 8 10 12 13 14 15 15 16 16 16 16 16 17 17 18 19 20 20 19 18 18 17 19 20 19 15 15 15 15 16 17 18 18 19 20 21 21 20
6 6 8 8 8 10 12 13 15 14 15 16 16 16 17 17 16 18 18 18 19 19 19 18 18 17 20 18 19 20 18 17 15 16 17 18 19 19 19 20 20 21
5 7 7 8 9 11 12 13 14 15 15 16 16 17 16 15 16 18 18 18 17 19 19 19 19 20 19 19 19 19 19 18 18 17 16 16 18 19 18 18 19 19
6 7 8 9 9 11 12 13 14 15 15 15 16 16 16 17 18 18 18 18 18 20 20 20 20 20 20 20 21 20 20 19 17 19 19 19 18 17 18 19 18 17
6 7 9 9 9 11 12 14 14 15 15 15 15 16 16 17 18 19 19 19 18 19 20 20 21 20 20 20 20 21 21 19 18 20 20 21 21 19 17 18 20 18
7 8 8 9 10 12 13 14 15 15 16 15 15 16 17 17 17 17 17 17 18 19 19 19 17 19 20 20 20 21 21 20 18 19 19 21 21 21 19 18 19 19
7 8 8 9 11 12 14 15 15 16 17 16 14 15 15 16 16 16 18 19 19 20 20 21 20 21 20 21 21 20 22 16 17 20 20 20 21 21 20 18 18 19
7 9 9 10 12 13 14 15 16 17 16 14 14 15 15 16 16 16 17 18 19 20 21 20 21 21 21 22 21 22 19 16 17 17 19 20 21 21 20 19 19 20
8 9 10 11 12 13 14 14 15 15 16 14 14 16 17 17 17 17 18 18 19 21 19 20 19 20 21 22 23 23 20 17 16 17 18 19 19 19 19 18 21 24
8 9 9 11 13 13 13 14 15 17 17 16 16 16 17 16 16 16 17 18 18 18 23 22 19 20 22 23 24 24 20 15 17 15 17 18 17 18 19 18 18 20
7 9 9 10 12 13 13 14 15 17 18 17 17 15 16 16 16 17 19 16 16 18 18 18 18 19 20 23 24 23 22 16 15 15 16 18 18 16 16 17 18 19
Wind_Direction
161 177 198 223 233 255 258 269 270 273 272 271 267 271 273 278 282 280 280 278 278 277 275 278 279 275 269 265 261 257 257 256 258 247 236 231 227 220 212 209 208 209
168 190 215 225 236 227 247 260 267 268 270 268 267 269 269 269 269 268 270 274 274 272 273 271 269 268 269 266 260 257 253 252 251 249 245 232 228 227 222 213 210 207
178 192 212 227 234 237 250 256 262 264 267 272 274 268 269 270 270 267 264 266 269 272 274 274 271 271 268 264 266 259 253 250 248 248 245 244 236 234 228 218 215 211
189 202 217 225 232 242 243 253 254 262 264 265 266 275 276 276 277 274 271 266 266 267 267 268 268 268 270 274 266 259 258 253 248 244 245 246 243 229 223 224 222 219
192 203 215 226 232 238 248 255 261 265 271 276 281 279 275 275 275 272 270 270 268 267 266 264 264 263 262 264 268 265 260 257 249 245 242 241 241 242 233 222 221 221
197 215 221 227 234 238 247 255 264 270 275 278 279 281 279 280 276 274 272 272 269 267 265 263 263 263 262 262 261 258 257 256 250 246 244 240 238 238 240 235 229 226
207 219 232 238 244 246 253 259 267 276 275 278 281 277 279 278 276 273 271 272 272 269 265 263 261 260 259 259 258 261 258 254 256 254 249 245 240 239 239 240 235 232
224 236 244 250 249 253 258 266 277 276 275 274 275 275 276 278 277 277 274 267 265 269 269 264 261 259 258 258 258 261 263 260 254 250 252 251 247 241 239 240 237 239
233 246 253 255 256 260 266 274 278 275 271 270 269 271 271 272 275 275 273 272 271 268 265 263 261 260 259 257 255 254 257 261 259 253 248 249 248 245 241 238 240 238
246 255 260 263 266 269 274 283 281 280 278 275 273 275 275 271 272 271 271 270 269 266 264 263 261 257 255 254 255 253 253 254 258 259 254 247 247 248 245 242 238 241
252 260 266 269 272 278 286 287 283 282 281 280 281 273 269 270 267 269 269 268 268 266 264 263 261 259 256 254 252 252 252 252 252 253 253 252 248 247 250 249 242 238
256 265 272 279 285 289 287 285 287 285 286 284 275 268 267 268 270 271 270 267 266 266 264 263 261 260 259 257 254 251 251 251 251 251 249 249 250 247 245 245 244 241
265 274 281 288 290 289 289 288 287 288 287 284 282 278 274 271 270 270 268 268 267 265 262 261 261 259 258 255 252 249 248 249 248 248 248 246 245 245 241 244 244 242
268 278 288 289 290 290 290 291 291 289 287 286 285 283 281 278 276 273 269 267 268 265 263 261 260 259 256 254 251 248 246 245 245 245 247 247 244 241 239 239 241 242
279 285 289 293 290 294 295 293 291 290 289 287 285 284 281 279 277 275 273 271 269 266 265 263 261 257 255 251 249 246 244 244 243 243 244 246 246 242 238 236 238 239
281 286 288 290 299 297 296 294 293 292 291 289 288 286 284 282 279 275 272 270 270 269 265 263 259 256 252 246 244 247 245 244 242 242 242 243 244 243 238 235 236 237
281 289 295 298 298 292 293 298 298 297 296 294 293 290 287 285 281 280 276 272 269 267 265 261 258 255 253 246 239 234 241 248 248 245 241 240 242 241 239 235 232 233
289 298 298 296 292 296 302 302 302 301 300 297 295 293 290 288 284 281 279 277 271 267 264 261 260 257 254 250 243 236 229 238 244 248 247 243 240 240 239 237 233 232
297 299 297 297 301 304 305 308 308 308 306 304 299 296 294 289 286 283 280 278 274 271 266 263 261 256 250 247 243 237 230 227 240 241 243 247 247 247 242 236 233 231
302 301 302 302 302 305 309 312 314 312 309 303 300 297 292 289 285 282 279 277 273 271 269 267 263 261 253 246 242 238 231 224 235 238 241 243 243 244 249 245 233 232
301 302 304 303 302 305 310 313 317 316 312 307 302 297 293 289 286 281 276 273 272 269 269 266 263 258 252 248 242 235 231 223 232 235 238 240 241 243 244 250 246 234
301 302 302 301 304 307 310 314 319 320 316 310 299 293 289 285 282 277 275 274 272 272 270 269 265 256 250 247 241 234 227 224 228 233 235 237 238 237 241 241 247 243
299 302 304 302 307 310 313 318 320 319 314 307 299 298 294 292 288 284 281 278 276 273 273 271 270 262 252 245 238 230 224 225 228 231 234 235 235 237 237 240 237 239
302 305 302 303 308 312 318 319 318 315 315 312 306 304 300 298 294 290 286 281 277 276 273 272 269 264 256 245 235 227 220 226 228 230 233 233 233 233 234 235 236 239
301 302 305 306 310 316 320 318 317 319 318 315 311 308 303 300 298 293 289 284 278 275 273 270 269 265 254 246 237 229 222 222 228 231 231 231 229 229 227 231 234 236
308 307 307 310 313 318 319 318 319 319 319 317 315 312 306 303 300 298 293 286 282 279 279 275 271 269 262 244 235 231 222 222 226 228 227 228 228 227 225 224 229 231